Weather History for KMMT - November, 2012

Change the Weather History Date:

Thursday, November 1, 2012

  Actual Average Record
Temperature  
Mean Temperature 46 °F -  
Max Temperature 65 °F 69 °F 84 °F (2004)
Min Temperature 27 °F 49 °F 27 °F (2012)
Degree Days  
Heating Degree Days 20    
Moisture  
Dew Point 25 °F    
Average Humidity 52    
Maximum Humidity 89    
Minimum Humidity 19    
Precipitation  
Precipitation 0.00 in - - ()
Sea Level Pressure  
Sea Level Pressure 29.86 in    
Wind  
Wind Speed 4 mph (WNW)    
Max Wind Speed 18 mph    
Max Gust Speed 28 mph    
Visibility 10 miles    
Events      
Averages and records for this station are not official NWS values.
T = Trace of Precipitation, MM = Missing Value Source: NWS Daily Summary

Daily Weather History Graph

Daily Weather History Graph

Search for Another Location

Airport or City:

Trip Planner

Search our weather history database for the weather conditions in past years. The results will help you decide how hot, cold, wet, or windy it might be!

Date:

Astronomy

Nov. 01, 2012 Rise Set
Actual Time 7:43 AM EDT 6:30 PM EDT
Civil Twilight 7:17 AM EDT 6:55 PM EDT
Nautical Twilight 6:47 AM EDT 7:25 PM EDT
Astronomical Twilight 6:18 AM EDT 7:54 PM EDT
Moon 8:31 PM EDT (11/1) 10:08 AM EDT (11/1)
Length of Visible Light 11h 38m
Length of Day
10h 47m
Waning Gibbous, 93% of the Moon is Illuminated
Nov 1
Waning Gibbous
Nov 6
Last Quarter
Nov 13
New
Nov 20
First Quarter
Nov 28
Full

Hourly Weather History & Observations

Time (EDT) Temp. Windchill Dew Point Humidity Pressure Visibility Wind Dir Wind Speed Gust Speed Precip Events Conditions
12:55 AM 39.2 °F - 27.9 °F 64% 29.83 in 10.0 mi Calm Calm - N/A   Clear
1:55 AM 37.4 °F - 25.7 °F 63% 29.83 in 10.0 mi Calm Calm - N/A   Clear
2:55 AM 33.8 °F - 27.5 °F 78% 29.83 in 10.0 mi Calm Calm - N/A   Clear
3:55 AM 33.3 °F - 25.9 °F 74% 29.83 in 10.0 mi Calm Calm - N/A   Clear
4:55 AM 28.8 °F - 23.5 °F 81% 29.83 in 10.0 mi Calm Calm - N/A   Clear
5:55 AM 30.2 °F - 27.3 °F 89% 29.84 in 10.0 mi Calm Calm - N/A   Partly Cloudy
6:55 AM 28.2 °F - 24.1 °F 84% 29.86 in 10.0 mi Calm Calm - N/A   Partly Cloudy
7:55 AM 27.7 °F - 24.3 °F 87% 29.87 in 10.0 mi Calm Calm - N/A   Partly Cloudy
8:55 AM 37.6 °F - 29.7 °F 73% 29.89 in 10.0 mi Calm Calm - N/A   Partly Cloudy
9:55 AM 47.5 °F - 28.0 °F 47% 29.90 in 10.0 mi West 6.9 mph - N/A   Clear
10:55 AM 54.5 °F - 26.2 °F 34% 29.89 in 10.0 mi NW 16.1 mph - N/A   Clear
11:55 AM 57.6 °F - 23.9 °F 27% 29.88 in 10.0 mi West 12.7 mph - N/A   Clear
12:55 PM 59.5 °F - 22.1 °F 24% 29.86 in 10.0 mi West 11.5 mph 24.2 mph N/A   Clear
1:55 PM 61.9 °F - 23.0 °F 23% 29.83 in 10.0 mi WNW 16.1 mph 27.6 mph N/A   Clear
2:55 PM 63.3 °F - 21.9 °F 21% 29.82 in 10.0 mi West 15.0 mph 19.6 mph N/A   Clear
3:55 PM 64.2 °F - 21.4 °F 19% 29.83 in 10.0 mi West 18.4 mph 25.3 mph N/A   Clear
4:55 PM 64.0 °F - 22.1 °F 20% 29.83 in 10.0 mi West 15.0 mph 21.9 mph N/A   Clear
5:55 PM 61.9 °F - 20.8 °F 21% 29.84 in 10.0 mi WNW 9.2 mph - N/A   Clear
6:55 PM 56.7 °F - 21.6 °F 26% 29.87 in 10.0 mi West 4.6 mph - N/A   Clear
7:55 PM 48.2 °F - 26.4 °F 43% 29.88 in 10.0 mi Calm Calm - N/A   Clear
8:55 PM 42.3 °F - 27.5 °F 56% 29.89 in 10.0 mi Calm Calm - N/A   Clear
9:55 PM 39.2 °F - 26.6 °F 61% 29.91 in 10.0 mi Calm Calm - N/A   Clear
10:55 PM 37.4 °F 33.8 °F 26.2 °F 64% 29.93 in 10.0 mi North 4.6 mph - N/A   Clear
11:55 PM 38.7 °F - 26.8 °F 62% 29.94 in 10.0 mi Calm Calm - N/A   Clear